EW3393 Weather Reports


Display with metric or nautical units.
time (UTC)temp
F
wind
direction
speed
MPH
gust
MPH
rain 1hr
in
rain 24hr
in
rain mn
in
humidity
%
barometer
mb
20260507232317 97 246 20.0 28.0 0.00 0.00 0.00 13 1008.5
20260507231830 97 269 20.0 27.0 0.00 0.00 0.00 13 1008.7
20260507231322 96 250 17.0 27.0 0.00 0.00 0.00 13 1008.6
20260507230819 96 250 20.0 26.0 0.00 0.00 0.00 13 1008.6
20260507230329 97 268 16.0 24.0 0.00 0.00 0.00 14 1008.6
20260507225839 97 255 16.0 27.0 0.00 0.00 0.00 13 1008.7
20260507225329 97 242 19.0 27.0 0.00 0.00 0.00 13 1008.7
20260507224821 98 259 19.0 25.0 0.00 0.00 0.00 12 1008.7
20260507224313 98 279 18.0 21.0 0.00 0.00 0.00 12 1008.8
20260507223826 98 278 12.0 16.0 0.00 0.00 0.00 12 1008.9
20260507223315 98 193 5.0 8.0 0.00 0.00 0.00 10 1008.9
20260507222825 97 130 3.0 8.0 0.00 0.00 0.00 10 1009.0
20260507222320 97 94 2.0 8.0 0.00 0.00 0.00 10 1009.0
20260507221833 98 83 3.0 9.0 0.00 0.00 0.00 10 1009.1
20260507221325 98 186 6.0 9.0 0.00 0.00 0.00 10 1009.2
20260507220819 98 86 3.0 9.0 0.00 0.00 0.00 10 1009.3
20260507220350 98 46 3.0 9.0 0.00 0.00 0.00 10 1009.4
20260507215818 98 21 2.0 9.0 0.00 0.00 0.00 10 1009.5
20260507215328 98 140 5.0 9.0 0.00 0.00 0.00 11 1009.6
20260507214821 97 179 2.0 9.0 0.00 0.00 0.00 11 1009.8
20260507214330 97 239 5.0 9.0 0.00 0.00 0.00 11 1009.8
20260507213823 97 151 6.0 14.0 0.00 0.00 0.00 11 1009.9
20260507213314 96 178 6.0 11.0 0.00 0.00 0.00 11 1010.0
20260507212830 95 256 2.0 9.0 0.00 0.00 0.00 11 1010.1
20260507212321 96 246 6.0 14.0 0.00 0.00 0.00 11 1010.2
20260507211813 96 263 9.0 14.0 0.00 0.00 0.00 11 1010.3
20260507211344 97 230 7.0 11.0 0.00 0.00 0.00 12 1010.4
20260507210814 97 149 4.0 13.0 0.00 0.00 0.00 11 1010.4
20260507210324 97 161 8.0 14.0 0.00 0.00 0.00 12 1010.6
20260507205814 96 180 4.0 9.0 0.00 0.00 0.00 11 1010.6
20260507205325 96 126 2.0 9.0 0.00 0.00 0.00 11 1010.7
20260507204818 96 165 2.0 8.0 0.00 0.00 0.00 11 1010.7
20260507204313 96 196 4.0 13.0 0.00 0.00 0.00 12 1010.8
20260507203826 96 200 6.0 13.0 0.00 0.00 0.00 11 1010.9
20260507203315 96 165 6.0 14.0 0.00 0.00 0.00 12 1010.8
20260507202848 96 150 9.0 14.0 0.00 0.00 0.00 12 1010.9
20260507202319 96 184 9.0 10.0 0.00 0.00 0.00 12 1010.9
20260507201830 96 182 7.0 13.0 0.00 0.00 0.00 13 1011.0
20260507201322 95 124 6.0 13.0 0.00 0.00 0.00 14 1011.0
20260507200854 95 163 9.0 14.0 0.00 0.00 0.00 14 1011.1
20260507200325 94 180 8.0 15.0 0.00 0.00 0.00 14 1011.1
20260507195819 94 159 8.0 15.0 0.00 0.00 0.00 15 1011.3
20260507195328 95 189 9.0 13.0 0.00 0.00 0.00 14 1011.4
20260507194821 95 205 7.0 13.0 0.00 0.00 0.00 15 1011.5
20260507194330 95 188 5.0 11.0 0.00 0.00 0.00 15 1011.5
20260507193842 94 163 7.0 11.0 0.00 0.00 0.00 15 1011.6
20260507193332 94 111 5.0 11.0 0.00 0.00 0.00 16 1011.6
20260507192826 94 167 7.0 10.0 0.00 0.00 0.00 16 1011.7
20260507192316 93 150 5.0 10.0 0.00 0.00 0.00 16 1011.8
20260507191827 93 177 7.0 10.0 0.00 0.00 0.00 15 1011.8
20260507191316 92 139 4.0 8.0 0.00 0.00 0.00 17 1012.0
20260507190829 92 216 4.0 9.0 0.00 0.00 0.00 17 1012.0
20260507190325 92 132 4.0 9.0 0.00 0.00 0.00 15 1012.1
20260507185815 92 159 6.0 9.0 0.00 0.00 0.00 16 1012.2
20260507185327 91 138 4.0 10.0 0.00 0.00 0.00 17 1012.3
20260507184821 91 191 7.0 9.0 0.00 0.00 0.00 17 1012.4
20260507184313 91 172 5.0 8.0 0.00 0.00 0.00 18 1012.5
20260507183826 91 80 3.0 7.0 0.00 0.00 0.00 18 1012.6
20260507183317 91 194 6.0 7.0 0.00 0.00 0.00 17 1012.6
20260507182850 91 135 5.0 9.0 0.00 0.00 0.00 18 1012.7
20260507182320 91 122 4.0 9.0 0.00 0.00 0.00 18 1012.7
20260507181815 90 134 5.0 9.0 0.00 0.00 0.00 18 1012.8
20260507181345 90 227 5.0 9.0 0.00 0.00 0.00 18 1012.8
20260507180816 90 149 5.0 9.0 0.00 0.00 0.00 18 1012.8
20260507180327 90 128 5.0 10.0 0.00 0.00 0.00 19 1012.9
20260507175818 89 173 5.0 10.0 0.00 0.00 0.00 19 1012.9
20260507175328 89 175 4.0 8.0 0.00 0.00 0.00 19 1013.0
20260507174820 89 161 4.0 10.0 0.00 0.00 0.00 21 1013.0
20260507174351 88 215 5.0 7.0 0.00 0.00 0.00 21 1013.0
20260507173843 88 178 5.0 7.0 0.00 0.00 0.00 22 1013.0
20260507173332 87 165 4.0 7.0 0.00 0.00 0.00 23 1013.0
20260507172826 88 213 5.0 9.0 0.00 0.00 0.00 22 1013.0
20260507172321 87 190 5.0 9.0 0.00 0.00 0.00 23 1013.0
20260507171834 87 190 5.0 9.0 0.00 0.00 0.00 23 1013.1
20260507171345 87 221 3.0 5.0 0.00 0.00 0.00 23 1013.1
20260507170817 86 211 2.0 9.0 0.00 0.00 0.00 24 1013.2
20260507170328 85 270 5.0 9.0 0.00 0.00 0.00 24 1013.2
20260507165818 85 251 5.0 9.0 0.00 0.00 0.00 24 1013.2
20260507165329 84 246 6.0 9.0 0.00 0.00 0.00 24 1013.2
20260507164821 84 265 5.0 9.0 0.00 0.00 0.00 25 1013.2
20260507164332 83 232 4.0 9.0 0.00 0.00 0.00 25 1013.2
20260507163844 83 233 4.0 9.0 0.00 0.00 0.00 25 1013.3
20260507163317 83 230 4.0 8.0 0.00 0.00 0.00 26 1013.3
20260507162851 83 246 5.0 8.0 0.00 0.00 0.00 26 1013.3
20260507162320 82 281 5.0 9.0 0.00 0.00 0.00 26 1013.3
20260507161813 82 238 5.0 9.0 0.00 0.00 0.00 26 1013.3
20260507161325 81 303 5.0 9.0 0.00 0.00 0.00 26 1013.3
20260507160816 81 260 5.0 9.0 0.00 0.00 0.00 26 1013.4
20260507160347 81 312 5.0 9.0 0.00 0.00 0.00 27 1013.4
20260507155817 81 290 7.0 9.0 0.00 0.00 0.00 26 1013.4
20260507155327 80 298 6.0 9.0 0.00 0.00 0.00 26 1013.4
20260507154819 80 261 7.0 11.0 0.00 0.00 0.00 26 1013.4
20260507154314 80 288 8.0 12.0 0.00 0.00 0.00 26 1013.5
20260507153826 80 282 8.0 12.0 0.00 0.00 0.00 26 1013.4
20260507153318 80 254 10.0 13.0 0.00 0.00 0.00 26 1013.4
20260507152832 80 259 9.0 13.0 0.00 0.00 0.00 25 1013.5
20260507152324 81 244 7.0 11.0 0.00 0.00 0.00 24 1013.4
20260507151818 81 261 8.0 11.0 0.00 0.00 0.00 23 1013.4
20260507151350 82 112 2.0 3.0 0.00 0.00 0.00 23 1013.4
20260507150842 81 355 2.0 3.0 0.00 0.00 0.00 21 1013.4
20260507150313 81 307 2.0 3.0 0.00 0.00 0.00 21 1013.4
20260507145826 80 19 1.0 2.0 0.00 0.00 0.00 22 1013.4
20260507145339 79 19 0.0 2.0 0.00 0.00 0.00 23 1013.3
20260507144829 78 19 1.0 3.0 0.00 0.00 0.00 24 1013.3
20260507144320 78 19 1.0 3.0 0.00 0.00 0.00 25 1013.3
20260507143832 77 19 2.0 3.0 0.00 0.00 0.00 25 1013.3
20260507143323 76 19 2.0 3.0 0.00 0.00 0.00 26 1013.2
20260507142817 75 19 2.0 4.0 0.00 0.00 0.00 27 1013.2
20260507142328 75 5 3.0 8.0 0.00 0.00 0.00 27 1013.2
20260507141820 74 355 4.0 8.0 0.00 0.00 0.00 28 1013.1
20260507141316 74 360 4.0 5.0 0.00 0.00 0.00 27 1013.1
20260507140830 74 9 0.0 6.0 0.00 0.00 0.00 28 1013.2
20260507140322 74 9 4.0 6.0 0.00 0.00 0.00 27 1013.1
20260507135832 73 9 4.0 8.0 0.00 0.00 0.00 28 1013.1
20260507135322 73 331 6.0 8.0 0.00 0.00 0.00 29 1013.1
20260507134815 72 355 4.0 5.0 0.00 0.00 0.00 31 1013.0
20260507134347 71 32 3.0 4.0 0.00 0.00 0.00 32 1013.0
20260507133819 70 97 1.0 4.0 0.00 0.00 0.00 33 1012.9
20260507133331 69 102 2.0 4.0 0.00 0.00 0.00 34 1012.8
20260507132828 69 87 3.0 4.0 0.00 0.00 0.00 34 1012.8
20260507132321 69 83 1.0 11.0 0.00 0.00 0.00 34 1012.7
20260507131835 69 328 6.0 12.0 0.00 0.00 0.00 34 1012.7
20260507131325 69 288 10.0 12.0 0.00 0.00 0.00 34 1012.6
20260507130816 69 300 10.0 12.0 0.00 0.00 0.00 35 1012.5
20260507130328 69 297 10.0 12.0 0.00 0.00 0.00 35 1012.5
20260507125818 68 315 10.0 12.0 0.00 0.00 0.00 36 1012.5
20260507125331 68 314 9.0 12.0 0.00 0.00 0.00 36 1012.4
20260507124824 68 309 9.0 13.0 0.00 0.00 0.00 36 1012.2
20260507124315 68 306 10.0 13.0 0.00 0.00 0.00 36 1012.3
20260507123825 68 323 9.0 12.0 0.00 0.00 0.00 35 1012.2
20260507123319 69 296 10.0 13.0 0.00 0.00 0.00 36 1012.2
20260507122834 69 296 11.0 13.0 0.00 0.00 0.00 35 1012.3
20260507122323 69 281 10.0 14.0 0.00 0.00 0.00 36 1012.3
20260507121815 68 285 11.0 14.0 0.00 0.00 0.00 36 1012.2
20260507121326 68 309 9.0 11.0 0.00 0.00 0.00 37 1012.3
20260507120818 68 308 7.0 10.0 0.00 0.00 0.00 37 1012.3
20260507120329 68 317 6.0 10.0 0.00 0.00 0.00 38 1012.4
20260507115818 68 324 6.0 12.0 0.00 0.00 0.00 38 1012.3
20260507115349 68 299 9.0 12.0 0.00 0.00 0.00 38 1012.3
20260507114825 68 339 10.0 12.0 0.00 0.00 0.00 39 1012.3
20260507114336 68 297 9.0 12.0 0.00 0.00 0.00 39 1012.3
20260507113847 68 300 10.0 14.0 0.00 0.00 0.00 39 1012.3
20260507113317 68 309 10.0 14.0 0.00 0.00 0.00 39 1012.3
20260507112829 68 305 11.0 13.0 0.00 0.00 0.00 39 1012.4
20260507112319 68 309 11.0 14.0 0.00 0.00 0.00 40 1012.4
20260507111835 68 299 12.0 14.0 0.00 0.00 0.00 40 1012.4
20260507111324 68 311 11.0 15.0 0.00 0.00 0.00 40 1012.5
20260507110816 68 305 13.0 15.0 0.00 0.00 0.00 40 1012.5
20260507110330 68 308 11.0 15.0 0.00 0.00 0.00 40 1012.5
20260507105842 68 293 11.0 16.0 0.00 0.00 0.00 40 1012.5
20260507105313 68 302 13.0 16.0 0.00 0.00 0.00 40 1012.5
20260507104826 68 302 12.0 15.0 0.00 0.00 0.00 41 1012.5
20260507104338 67 313 10.0 13.0 0.00 0.00 0.00 42 1012.6
20260507103850 67 319 10.0 12.0 0.00 0.00 0.00 42 1012.6
20260507103321 68 317 8.0 11.0 0.00 0.00 0.00 42 1012.8
20260507102833 68 323 9.0 11.0 0.00 0.00 0.00 42 1012.8
20260507102323 67 309 8.0 10.0 0.00 0.00 0.00 42 1012.9
20260507101816 67 321 8.0 10.0 0.00 0.00 0.00 43 1012.9
20260507101348 67 336 7.0 10.0 0.00 0.00 0.00 43 1012.9
20260507100840 67 331 7.0 10.0 0.00 0.00 0.00 42 1012.9
20260507100314 67 315 7.0 11.0 0.00 0.00 0.00 42 1012.9
20260507095845 67 312 8.0 11.0 0.00 0.00 0.00 42 1012.9
20260507095314 68 313 8.0 12.0 0.00 0.00 0.00 42 1012.9
20260507094827 68 274 10.0 12.0 0.00 0.00 0.00 42 1012.9
20260507094318 68 300 9.0 11.0 0.00 0.00 0.00 42 1012.9
20260507093830 68 276 8.0 10.0 0.00 0.00 0.00 42 1012.9
20260507093342 68 292 8.0 10.0 0.00 0.00 0.00 43 1012.9
20260507092813 67 281 9.0 11.0 0.00 0.00 0.00 43 1012.9
20260507092324 67 288 9.0 11.0 0.00 0.00 0.00 44 1013.0
20260507091821 67 288 9.0 11.0 0.00 0.00 0.00 45 1013.0
20260507091312 67 278 9.0 11.0 0.00 0.00 0.00 46 1013.0
20260507090846 67 287 9.0 10.0 0.00 0.00 0.00 47 1013.1
20260507090314 67 284 9.0 10.0 0.00 0.00 0.00 47 1013.2
20260507085823 67 291 8.0 10.0 0.00 0.00 0.00 48 1013.2
20260507085313 67 279 8.0 10.0 0.00 0.00 0.00 48 1013.3
20260507084825 67 271 9.0 10.0 0.00 0.00 0.00 47 1013.3
20260507084317 67 267 8.0 10.0 0.00 0.00 0.00 47 1013.3
20260507083829 67 245 9.0 10.0 0.00 0.00 0.00 47 1013.3
20260507083321 67 254 7.0 9.0 0.00 0.00 0.00 46 1013.4
20260507082816 67 274 7.0 9.0 0.00 0.00 0.00 46 1013.3
20260507082347 67 271 7.0 9.0 0.00 0.00 0.00 47 1013.4
20260507081818 67 285 8.0 9.0 0.00 0.00 0.00 48 1013.4
20260507081328 67 295 7.0 8.0 0.00 0.00 0.00 48 1013.4
20260507080842 67 296 5.0 10.0 0.00 0.00 0.00 47 1013.6
20260507080312 68 296 8.0 10.0 0.00 0.00 0.00 48 1013.7
20260507075822 68 284 9.0 10.0 0.00 0.00 0.00 48 1013.6
20260507075313 68 303 8.0 10.0 0.00 0.00 0.00 50 1013.6
20260507074827 68 295 8.0 10.0 0.00 0.00 0.00 50 1013.7
20260507074317 68 318 8.0 11.0 0.00 0.00 0.00 49 1013.7
20260507073814 68 300 8.0 11.0 0.00 0.00 0.00 49 1013.8
20260507073324 68 288 9.0 11.0 0.00 0.00 0.00 49 1013.7
20260507072836 68 317 8.0 10.0 0.00 0.00 0.00 49 1013.8
20260507072326 67 302 9.0 10.0 0.00 0.00 0.00 50 1013.9
20260507071837 67 309 8.0 9.0 0.00 0.00 0.00 50 1013.9
20260507071328 68 319 6.0 9.0 0.00 0.00 0.00 50 1013.9
20260507070820 68 313 5.0 6.0 0.00 0.00 0.00 49 1014.0
20260507070330 68 272 6.0 8.0 0.00 0.00 0.00 49 1014.0
20260507065820 69 263 7.0 8.0 0.00 0.00 0.00 49 1014.0
20260507065330 69 270 6.0 7.0 0.00 0.00 0.00 48 1014.0
20260507064822 69 262 3.0 8.0 0.00 0.00 0.00 47 1014.2
20260507064318 70 257 6.0 10.0 0.00 0.00 0.00 47 1014.2
20260507063830 70 251 8.0 10.0 0.00 0.00 0.00 47 1014.2
20260507063321 70 260 7.0 11.0 0.00 0.00 0.00 46 1014.2
20260507062813 71 263 9.0 12.0 0.00 0.00 0.00 45 1014.3
20260507062324 71 275 10.0 16.0 0.00 0.00 0.00 45 1014.2
20260507061815 71 269 11.0 16.0 0.00 0.00 0.00 45 1014.2
20260507061324 71 294 9.0 13.0 0.00 0.00 0.00 44 1014.2
20260507060816 72 281 10.0 13.0 0.00 0.00 0.00 44 1014.3
20260507060327 72 302 10.0 17.0 0.00 0.00 0.00 44 1014.3
20260507055820 72 304 12.0 17.0 0.00 0.00 0.00 44 1014.4
20260507055313 72 297 11.0 15.0 0.00 0.00 0.00 44 1014.4
20260507054826 72 299 12.0 17.0 0.00 0.00 0.00 44 1014.4
20260507054318 72 290 11.0 17.0 0.00 0.00 0.00 44 1014.4
20260507053850 72 303 13.0 18.0 0.00 0.00 0.00 44 1014.5
20260507053319 72 311 13.0 18.0 0.00 0.00 0.00 45 1014.4
20260507052831 72 300 13.0 21.0 0.00 0.00 0.00 45 1014.4
20260507052322 72 298 14.0 21.0 0.00 0.00 0.00 45 1014.4
20260507051818 72 304 14.0 23.0 0.00 0.00 0.00 45 1014.4
20260507051328 73 287 15.0 21.0 0.00 0.00 0.00 45 1014.3
20260507050821 73 302 17.0 20.0 0.00 0.00 0.00 44 1014.3
20260507050331 73 296 14.0 20.0 0.00 0.00 0.00 44 1014.3
20260507045839 73 321 14.0 20.0 0.00 0.00 0.00 43 1014.4
20260507045349 73 297 14.0 18.0 0.00 0.00 0.00 43 1014.3
20260507044822 74 302 13.0 21.0 0.00 0.00 0.00 42 1014.4
20260507044313 74 295 14.0 20.0 0.00 0.00 0.00 42 1014.3
20260507043827 74 288 13.0 20.0 0.00 0.00 0.00 41 1014.3
20260507043318 74 277 15.0 20.0 0.00 0.00 0.00 40 1014.2
20260507042833 74 270 16.0 20.0 0.00 0.00 0.00 40 1014.2
20260507042325 75 292 14.0 20.0 0.00 0.00 0.00 39 1014.1
20260507041818 75 261 15.0 20.0 0.00 0.00 0.00 39 1014.1
20260507041329 75 257 14.0 18.0 0.00 0.00 0.00 38 1014.1
20260507040821 76 277 14.0 18.0 0.00 0.00 0.00 38 1014.0
20260507040330 76 258 11.0 15.0 0.00 0.00 0.00 36 1014.0
20260507035820 76 276 10.0 15.0 0.00 0.00 0.00 35 1014.0
20260507035331 76 275 12.0 18.0 0.00 0.00 0.00 35 1013.9
20260507034822 77 288 14.0 18.0 0.00 0.00 0.00 34 1013.9
20260507034353 77 282 11.0 15.0 0.00 0.00 0.00 33 1013.8
20260507033828 77 277 11.0 15.0 0.00 0.00 0.00 33 1013.7
20260507033319 77 277 9.0 12.0 0.00 0.00 0.00 32 1013.6
20260507032812 77 270 8.0 13.0 0.00 0.00 0.00 31 1013.6
20260507032344 77 287 10.0 13.0 0.00 0.00 0.00 31 1013.5
20260507031814 78 265 9.0 12.0 0.00 0.00 0.00 31 1013.4
20260507031325 78 261 6.0 11.0 0.00 0.00 0.00 30 1013.4
20260507030817 78 300 7.0 15.0 0.00 0.00 0.00 30 1013.3
20260507030327 78 269 10.0 15.0 0.00 0.00 0.00 30 1013.2
20260507025837 78 267 9.0 13.0 0.00 0.00 0.00 29 1013.2
20260507025347 79 273 8.0 14.0 0.00 0.00 0.00 29 1013.1
20260507024822 79 242 9.0 13.0 0.00 0.00 0.00 29 1013.0
20260507024313 79 261 10.0 13.0 0.00 0.00 0.00 29 1012.9
20260507023825 79 263 11.0 16.0 0.00 0.00 0.00 29 1012.8
20260507023335 80 260 13.0 16.0 0.00 0.00 0.00 29 1012.7
20260507022847 80 297 11.0 16.0 0.00 0.00 0.00 28 1012.7
20260507022317 80 273 8.0 13.0 0.00 0.00 0.00 28 1012.7
20260507021850 81 246 9.0 14.0 0.00 0.00 0.00 28 1012.6
20260507021321 81 263 11.0 16.0 0.00 0.00 0.00 27 1012.6
20260507020814 82 246 9.0 16.0 0.00 0.00 0.00 27 1012.5
20260507020325 82 251 12.0 16.0 0.00 0.00 0.00 27 1012.5
20260507015836 82 252 9.0 17.0 0.00 0.00 0.00 26 1012.5
20260507015329 83 196 11.0 17.0 0.00 0.00 0.00 22 1012.4
20260507014820 84 259 11.0 15.0 0.00 0.00 0.00 25 1012.4
20260507014330 85 248 4.0 9.0 0.00 0.00 0.00 22 1012.3
20260507013823 85 180 4.0 5.0 0.00 0.00 0.00 20 1012.3
20260507013313 85 180 3.0 5.0 0.00 0.00 0.00 20 1012.2
20260507012826 85 150 1.0 8.0 0.00 0.00 0.00 20 1012.1
20260507012316 86 167 3.0 8.0 0.00 0.00 0.00 20 1012.1
20260507011830 86 138 5.0 8.0 0.00 0.00 0.00 20 1012.1
20260507011322 86 145 1.0 4.0 0.00 0.00 0.00 20 1012.1
20260507010819 86 180 2.0 4.0 0.00 0.00 0.00 19 1012.0
20260507010331 86 159 2.0 6.0 0.00 0.00 0.00 20 1012.0
20260507005821 86 178 3.0 7.0 0.00 0.00 0.00 20 1012.1
20260507005332 86 160 3.0 7.0 0.00 0.00 0.00 19 1012.0
20260507004845 86 199 5.0 7.0 0.00 0.00 0.00 19 1012.0
20260507004314 86 178 5.0 8.0 0.00 0.00 0.00 19 1012.0
20260507003826 86 205 4.0 8.0 0.00 0.00 0.00 20 1012.0
20260507003318 86 194 2.0 8.0 0.00 0.00 0.00 19 1012.0
20260507002815 86 188 5.0 13.0 0.00 0.00 0.00 20 1012.0
20260507002326 86 182 5.0 13.0 0.00 0.00 0.00 20 1012.0
20260507001818 86 146 5.0 7.0 0.00 0.00 0.00 19 1011.9
20260507001329 86 172 5.0 7.0 0.00 0.00 0.00 20 1011.9
20260507000823 86 205 3.0 10.0 0.00 0.00 0.00 19 1011.9
20260507000314 86 162 6.0 10.0 0.00 0.00 0.00 19 1011.8
20260506235823 85 192 4.0 11.0 0.00 0.00 0.00 20 1011.8
20260506235353 86 99 7.0 11.0 0.00 0.00 0.00 19 1011.8
20260506234825 86 139 3.0 7.0 0.00 0.00 0.00 19 1011.8
20260506234336 86 127 2.0 9.0 0.00 0.00 0.00 19 1011.8
20260506233813 85 140 6.0 9.0 0.00 0.00 0.00 19 1011.8
20260506233345 85 65 3.0 9.0 0.00 0.00 0.00 19 1011.9
20260506232817 86 91 5.0 9.0 0.00 0.00 0.00 18 1012.0